Weather in Zhuravka

Russia / Bryansk Oblast     52°58′36″N   34°22′01″E
temp.,
°C
wind,
m/s
gust,
m/s
humid.,
%
clouds,
%
prec.,
mm/h
press.,
hPa
HPBL,
m
14 may, fri
fri1400:00+8se26935 0.0 1014100
03:00+7se3893100 0.0 1015162
06:00+8ese3886100 0.0 1014178
09:00+14ese3774100 0.0 1012307
12:00+20ese5862100 0.3 10111174
15:00+20se476971 1.9 10091133
18:00+18sse4108597 6.3 1007416
21:00+14sse3119363 9.4 1008268
15 may, sat
sat1500:00+13s2797100 0.0 1008172
03:00+12s23965 0.0 100943
06:00+12sse269570 0.0 1009121
09:00+17s47803 0.4 1009479
12:00+19ssw58656 1.4 10091360
15:00+19ssw587313 4.4 10091221
18:00+17ssw48795 1.6 1010980
21:00+13s310943 1.8 1011299
16 may, sun
sun1600:00+11ssw310962 0.0 1011306
03:00+10ssw39975 0.0 1012198
06:00+10ssw39935 0.0 1013273
09:00+16sw36735 0.0 1013615
12:00+20sw47575 0.1 10131515
15:00+22wsw45493 0.1 10121785
18:00+21wsw2459100 0.0 10121112
21:00+15s0081100 0.0 101211
17 may, mon
mon1700:00+13e2288100 0.0 101314
03:00+12ene239110 0.0 101262
06:00+13ene288898 0.0 1011168
09:00+20e496447 0.0 1010464
12:00+24e685592 0.0 10081054
15:00+27se612435 0.0 10061929
18:00+24se6135645 0.0 10041852
21:00+19se41282100 0.0 1005413
18 may, tue
tue1800:00+17s399289 0.1 1005301
03:00+15wsw3692100 0.1 1006509
06:00+15w2490100 0.1 1007427
09:00+16wnw2381100 0.1 1008683
12:00+19w2366100 0.1 10081089
15:00+20wsw336591 0.1 10081085
18:00+19sw346711 0.5 1008954
21:00+14wsw11913 0.6 100910